[[{"header":{"parameterUnit":"m.s-1","parameterCategory":1,"la1":30.2991,"la2":30.254,"lo1":-89.0895,"lo2":-89.0444,"dy":0.0017,"dx":0.0017,"nx":28,"ny":28,"refTime":"2024-03-20T21:00:00:Z","depth":0,"parameterNumber":2,"parameterNumberName":"U-component_of_WINDS"},"data":[0,0,0,0,0,0,0,0,0,0,0,0,0,0,0,0,0,0,0,0,0,0,0,0,0,0,0,0,0,0,0,0,0,0,0,0,0,0,0,0,0,0,0,0,0,0,0,0,0,0,0,0,0,0,0,0,0,0,-4.6243,-4.6242,0,-4.6189,-4.6188,-4.6188,-4.6068,-4.6065,-4.6063,-4.6061,-4.6009,-4.601,-4.6011,0,0,0,0,0,0,0,0,0,0,0,0,0,-4.6247,-4.6247,-4.6243,-4.6242,-4.6241,-4.6189,-4.6188,-4.6187,-4.6068,-4.6065,-4.6062,-4.6059,-4.6009,-4.601,-4.6011,0,0,0,0,0,0,0,0,0,0,0,0,0,-4.6224,-4.6247,-4.6243,-4.6175,-4.6169,-4.6189,-4.6188,-4.6187,-4.6069,-4.6065,-4.6061,-4.6058,-4.6009,-4.601,-4.6011,-4.6094,0,0,-4.6016,-4.6016,0,0,0,0,0,0,0,0,-4.6226,-4.6224,-4.6186,-4.618,-4.6173,-4.6131,-4.6171,-4.6156,-4.607,-4.6107,-4.606,-4.6056,-4.6053,-4.6051,-4.6049,-4.6091,-4.6089,-4.6016,-4.6017,-4.6017,-4.6018,0,0,0,0,0,0,0,-4.6227,-4.6226,-4.6221,-4.6186,-4.6177,-4.6149,-4.6142,-4.6167,-4.6102,-4.6103,-4.6095,-4.609,-4.6049,-4.6048,-4.6047,-4.6088,-4.6016,-4.6017,-4.6018,-4.6018,-4.6197,-4.6201,0,0,0,0,0,0,-4.6238,-4.6228,-4.6223,-4.622,-4.619,-4.6152,-4.6144,-4.6148,-4.6101,-4.609,-4.6093,-4.6084,-4.6047,-4.6045,-4.6044,-4.6137,-4.6017,-4.6018,-4.6019,-4.6193,-4.6198,-4.6202,0,0,0,0,0,0,-4.6239,-4.6239,-4.6225,-4.6221,-4.6217,-4.6156,-4.6162,-4.6149,-4.6148,-4.6093,-4.6081,-4.6103,-4.6044,-4.6042,-4.6082,-4.6134,-4.6019,-4.602,-4.6188,-4.6195,-4.62,-4.6324,0,0,0,0,0,0,-4.6239,-4.624,-4.6269,-4.6223,-4.6218,-4.6263,-4.6165,-4.6151,-4.615,-4.6138,-4.61,-4.609,-4.6041,-4.6081,-4.6084,-4.6134,-4.6021,-4.6183,-4.6191,-4.6198,-4.6315,-4.6334,-4.6349,0,0,0,0,0,-4.624,-4.6307,-4.6271,-4.6271,-4.6253,-4.6266,-4.6263,-4.6205,-4.6155,-4.6184,-4.6149,-4.6091,-4.6128,-4.6086,-4.6088,-4.6139,-4.618,-4.6189,-4.6197,-4.6308,-4.633,-4.6349,0,0,0,0,0,0,-4.6362,-4.63,-4.6259,-4.6313,-4.6296,-4.6246,-4.6281,-4.6231,-4.6228,-4.6217,-4.6146,-4.6139,-4.6188,-4.6168,-4.6122,-4.6217,-4.6145,-4.6155,-4.6228,-4.6249,-4.6266,-4.6268,-4.6023,0,0,0,0,0,-4.6395,-4.6409,-4.6355,-4.6408,-4.6401,-4.6343,-4.6347,-4.6303,-4.6283,-4.6275,-4.6242,-4.6226,-4.6234,-4.6241,-4.6245,-4.6313,-4.6303,-4.6349,-4.6367,-4.6381,-4.6389,-4.6424,-4.6444,-4.6231,-4.6231,-4.6231,0,0,-4.6463,-4.6431,-4.6445,-4.6431,-4.6412,-4.643,-4.6338,-4.636,-4.6372,-4.6278,-4.6313,-4.629,-4.6267,-4.6321,-4.6344,-4.6306,-4.6447,-4.6392,-4.6404,-4.6404,-4.6435,-4.6455,-4.6473,-4.6237,-4.6236,-4.6235,0,0,-4.6597,-4.6574,-4.6615,-4.6599,-4.6571,-4.6533,-4.6543,-4.6501,-4.6481,-4.6515,-4.6446,-4.6461,-4.6476,-4.6462,-4.6457,-4.6588,-4.6534,-4.6592,-4.668,-4.6715,-4.6732,-4.6746,-4.6792,-4.681,-4.6601,-4.6602,-4.6602,0,-4.6685,-4.6707,-4.6643,-4.667,-4.6666,-4.6582,-4.6624,-4.6612,-4.6588,-4.6589,-4.6547,-4.6564,-4.6543,-4.6593,-4.6625,-4.6624,-4.6634,-4.6595,-4.6734,-4.6748,-4.6761,-4.6804,-4.6821,-4.6609,-4.6608,-4.6607,-4.6606,0,-4.6817,-4.6834,-4.6871,-4.6849,-4.685,-4.6885,-4.6828,-4.6837,-4.6795,-4.6761,-4.6798,-4.677,-4.6767,-4.6776,-4.6735,-4.6821,-4.6798,-4.6747,-4.6672,-4.6789,-4.6828,-4.6844,-4.6619,-4.6616,-4.6614,-4.6612,0,0,-4.7023,-4.6966,-4.6981,-4.697,-4.6935,-4.6947,-4.6979,-4.6975,-4.6984,-4.6972,-4.6997,-4.7013,-4.6965,-4.696,-4.6917,-4.6948,-4.7053,-4.6893,-4.6891,-4.6922,-4.7145,-4.7183,-4.7203,-4.7018,-4.7021,-4.7023,-4.7147,0,-4.7147,-4.7195,-4.714,-4.7201,-4.7216,-4.7137,-4.7165,-4.7148,-4.7118,-4.7128,-4.7095,-4.7107,-4.7044,-4.704,-4.7067,-4.7034,-4.7096,-4.7025,-4.7041,-4.7042,-4.7047,-4.7223,-4.7262,-4.738,-4.7162,-4.7164,-4.7166,0,-4.7296,-4.729,-4.7352,-4.7313,-4.7317,-4.7343,-4.7335,-4.7346,-4.7325,-4.7301,-4.7297,-4.7245,-4.7275,-4.7205,-4.7245,-4.7198,-4.7202,-4.7187,-4.719,-4.7188,-4.711,-4.7224,-4.7416,-4.7433,-4.719,-4.7188,-4.7186,0,-4.7439,-4.7446,-4.7484,-4.7477,-4.7434,-4.7453,-4.7437,-4.7412,-4.7414,-4.7408,-4.7409,-4.7408,-4.7407,-4.7408,-4.7359,-4.7312,-4.7406,-4.7331,-4.7387,-4.7388,-4.7408,-4.7407,-4.7602,-4.7414,-4.7414,-4.7414,-4.7413,0,-4.7581,-4.7622,-4.7547,-4.757,-4.7614,-4.7552,-4.7598,-4.7573,-4.7553,-4.7571,-4.7504,-4.7523,-4.7457,-4.747,-4.7432,-4.7471,-4.7472,-4.7454,-4.7443,-4.7459,-4.7461,-4.7458,-4.7448,-4.7418,-4.7417,-4.7416,-4.7416,0,-4.7747,-4.7698,-4.7734,-4.769,-4.768,-4.7715,-4.7677,-4.7698,-4.7665,-4.7689,-4.7691,-4.764,-4.7651,-4.7602,-4.7605,-4.758,-4.7638,-4.7615,-4.7645,-4.7637,-4.7695,-4.769,-4.7894,-4.7917,-4.7716,-4.7718,-4.772,0,-4.784,-4.7869,-4.7828,-4.7835,-4.7821,-4.7833,-4.7834,-4.7776,-4.778,-4.7759,-4.7783,-4.7788,-4.7789,-4.7811,-4.7775,-4.7778,-4.7752,-4.7824,-4.7752,-4.7767,-4.7752,-4.775,-4.7753,-4.7838,-4.7841,-4.7843,-4.7844,0,-4.801,-4.7985,-4.7988,-4.7984,-4.7987,-4.7981,-4.7971,-4.7981,-4.7917,-4.7926,-4.7936,-4.7937,-4.794,-4.7947,-4.7942,-4.7926,-4.7875,-4.7868,-4.788,-4.7896,-4.7912,-4.7903,-4.7683,-4.7863,-4.7861,-4.7859,-4.7858,-4.7858,-4.8141,-4.8163,-4.8138,-4.8145,-4.8131,-4.8123,-4.814,-4.8109,-4.8116,-4.8113,-4.8079,-4.8096,-4.8076,-4.8064,-4.8053,-4.8067,-4.8033,-4.8052,-4.8057,-4.8062,-4.8071,-4.7911,-4.8066,-4.8065,-4.8065,-4.8064,-4.8064,0,-4.8306,-4.8286,-4.8293,-4.8281,-4.8286,-4.8238,-4.8225,-4.8233,-4.8248,-4.8233,-4.8236,-4.8248,-4.8255,-4.822,-4.8222,-4.824,-4.8216,-4.8242,-4.8239,-4.8236,-4.8102,-4.809,-4.8261,-4.8261,-4.8261,-4.8261,-4.8261,-4.8261,-4.8393,-4.8428,-4.84,-4.8429,-4.8409,-4.8424,-4.8421,-4.8414,-4.8402,-4.8418,-4.8423,-4.84,-4.8377,-4.8378,-4.8382,-4.8372,-4.8375,-4.8409,-4.8391,-4.8265,-4.8246,-4.8227,-4.8216,-4.841,-4.8411,-4.8523,-4.8525,-4.8525]},{"header":{"parameterUnit":"m.s-1","parameterCategory":1,"la1":30.2991,"la2":30.254,"lo1":-89.0895,"lo2":-89.0444,"dy":0.0017,"dx":0.0017,"nx":28,"ny":28,"refTime":"2024-03-20T21:00:00:Z","depth":0,"parameterNumber":3,"parameterNumberName":"V-component_of_WINDS"},"data":[0,0,0,0,0,0,0,0,0,0,0,0,0,0,0,0,0,0,0,0,0,0,0,0,0,0,0,0,0,0,0,0,0,0,0,0,0,0,0,0,0,0,0,0,0,0,0,0,0,0,0,0,0,0,0,0,0,0,2.6528,2.6529,0,2.6648,2.665,2.6651,2.6717,2.6717,2.6717,2.6717,2.6835,2.6838,2.6841,0,0,0,0,0,0,0,0,0,0,0,0,0,2.6351,2.6354,2.6528,2.653,2.6531,2.6648,2.665,2.6652,2.6717,2.6717,2.6717,2.6718,2.6834,2.6838,2.6841,0,0,0,0,0,0,0,0,0,0,0,0,0,2.6445,2.6355,2.6528,2.6578,2.6584,2.6648,2.665,2.6652,2.6717,2.6717,2.6717,2.6718,2.6833,2.6837,2.6842,2.6864,0,0,2.6855,2.6857,0,0,0,0,0,0,0,0,2.644,2.6451,2.6569,2.6575,2.6581,2.6668,2.6631,2.6723,2.6717,2.6666,2.6717,2.6718,2.6779,2.6788,2.681,2.6869,2.6874,2.6856,2.6859,2.686,2.6862,0,0,0,0,0,0,0,2.6433,2.6447,2.6576,2.6571,2.6578,2.6593,2.6607,2.6649,2.6719,2.6671,2.6676,2.6689,2.6782,2.6805,2.6813,2.6876,2.6856,2.686,2.6862,2.6864,2.6961,2.6961,0,0,0,0,0,0,2.6419,2.6441,2.6572,2.6579,2.651,2.6596,2.6611,2.664,2.6719,2.6732,2.6689,2.6692,2.6798,2.6808,2.6817,2.685,2.686,2.6865,2.6867,2.6962,2.6961,2.6961,0,0,0,0,0,0,2.6415,2.643,2.6567,2.6512,2.653,2.6599,2.663,2.6642,2.6665,2.6733,2.6746,2.67,2.6798,2.6811,2.6853,2.6855,2.6867,2.6871,2.6962,2.6962,2.6961,2.6914,0,0,0,0,0,0,2.641,2.6428,2.6438,2.6511,2.6533,2.6601,2.663,2.6644,2.6673,2.6678,2.6747,2.6758,2.6799,2.6846,2.6857,2.6861,2.6874,2.6962,2.6962,2.6961,2.6915,2.6912,2.6909,0,0,0,0,0,2.6403,2.6418,2.6438,2.6454,2.6547,2.6601,2.6613,2.6662,2.6673,2.6683,2.6727,2.6756,2.6853,2.6849,2.6863,2.6868,2.6962,2.6962,2.6961,2.6917,2.6913,2.6909,0,0,0,0,0,0,2.6342,2.6429,2.6452,2.6492,2.6539,2.6612,2.6626,2.6656,2.6699,2.6702,2.6759,2.6774,2.681,2.6843,2.6838,2.6894,2.691,2.6913,2.6872,2.6868,2.6865,2.6856,2.6878,0,0,0,0,0,2.6333,2.6371,2.6445,2.6473,2.6495,2.6557,2.6582,2.6616,2.6666,2.6686,2.6733,2.6779,2.682,2.6846,2.6887,2.692,2.6936,2.6931,2.6927,2.6925,2.6926,2.6947,2.6946,2.6961,2.6961,2.6961,0,0,2.6315,2.6367,2.6388,2.6462,2.6502,2.654,2.6573,2.661,2.6639,2.6691,2.6734,2.677,2.6825,2.6863,2.6882,2.6892,2.6925,2.6924,2.6921,2.6925,2.6947,2.6945,2.6944,2.6961,2.6961,2.6961,0,0,2.6301,2.6345,2.6374,2.6414,2.6476,2.6517,2.6524,2.6593,2.662,2.6664,2.6705,2.6738,2.6807,2.6846,2.6875,2.6877,2.6905,2.6889,2.6872,2.6892,2.6891,2.689,2.6892,2.6892,2.689,2.689,2.689,0,2.6271,2.633,2.6384,2.6421,2.6452,2.6504,2.6533,2.6569,2.664,2.666,2.667,2.676,2.68,2.6849,2.685,2.6871,2.688,2.6881,2.6887,2.6887,2.6887,2.6889,2.6889,2.6888,2.6888,2.6888,2.6888,0,2.629,2.6331,2.6346,2.6417,2.645,2.6482,2.654,2.6567,2.6598,2.6637,2.6682,2.6733,2.6787,2.68,2.683,2.6853,2.6857,2.6876,2.6894,2.6882,2.6885,2.6886,2.6884,2.6885,2.6886,2.6886,0,0,2.6241,2.6342,2.6347,2.638,2.6452,2.6484,2.6518,2.6573,2.6595,2.6642,2.6673,2.6731,2.675,2.6782,2.6817,2.6834,2.6834,2.6852,2.6854,2.6847,2.6864,2.6849,2.6849,2.6853,2.6854,2.6854,2.6859,0,2.6238,2.6305,2.6355,2.6402,2.6441,2.6491,2.6521,2.6568,2.6606,2.6643,2.6684,2.6725,2.6747,2.6767,2.6786,2.683,2.6838,2.683,2.6882,2.6883,2.6867,2.6851,2.6836,2.6838,2.6861,2.6861,2.6861,0,2.6245,2.6293,2.6344,2.6415,2.6432,2.6459,2.6514,2.6549,2.6603,2.6629,2.6666,2.6703,2.6741,2.6754,2.6807,2.6801,2.6825,2.6849,2.6851,2.6858,2.6871,2.6858,2.684,2.684,2.6863,2.6863,2.6863,0,2.6205,2.6282,2.6324,2.635,2.6432,2.645,2.6485,2.654,2.657,2.6617,2.6637,2.6686,2.6714,2.6751,2.68,2.6805,2.6848,2.6865,2.6871,2.6869,2.6877,2.6876,2.6863,2.6892,2.6892,2.6892,2.6892,0,2.6197,2.6227,2.6307,2.6333,2.6368,2.6424,2.6457,2.6495,2.6544,2.6577,2.6622,2.6652,2.6714,2.6751,2.6789,2.6828,2.684,2.6862,2.6871,2.6858,2.6855,2.6875,2.6876,2.6892,2.6892,2.6892,2.6892,0,2.6159,2.6214,2.6262,2.6337,2.6356,2.6379,2.6442,2.6468,2.6509,2.6551,2.6564,2.6627,2.6674,2.6726,2.6788,2.6814,2.685,2.6864,2.6833,2.6838,2.6841,2.684,2.684,2.6844,2.6869,2.6868,2.6868,0,2.6151,2.6175,2.6253,2.628,2.6314,2.6356,2.6387,2.6444,2.6474,2.6539,2.6557,2.6607,2.6651,2.6722,2.6773,2.6821,2.6837,2.6834,2.6844,2.6831,2.6838,2.6836,2.6839,2.6831,2.683,2.683,2.6829,0,2.6131,2.6157,2.6202,2.6256,2.6293,2.6338,2.6385,2.6403,2.6469,2.6501,2.655,2.6584,2.6649,2.6698,2.6753,2.6788,2.6819,2.6826,2.683,2.6816,2.6798,2.6809,2.6825,2.6825,2.6826,2.6826,2.6826,2.6826,2.6108,2.6133,2.6192,2.6241,2.6282,2.6325,2.6354,2.6399,2.6442,2.6501,2.6531,2.658,2.6634,2.6712,2.6746,2.6784,2.6794,2.6799,2.6801,2.6801,2.6798,2.6791,2.6794,2.6794,2.6794,2.6794,2.6794,0,2.6092,2.6133,2.6177,2.6242,2.628,2.6308,2.6361,2.6391,2.6434,2.6483,2.6525,2.6582,2.663,2.6685,2.6737,2.6757,2.6772,2.6768,2.6767,2.6775,2.6786,2.6778,2.6755,2.6755,2.6755,2.6755,2.6755,2.6755,2.6088,2.6131,2.6165,2.6229,2.627,2.632,2.6348,2.6387,2.6427,2.6489,2.653,2.6566,2.6618,2.6674,2.6719,2.6734,2.6751,2.6743,2.6762,2.6771,2.6774,2.6777,2.677,2.6746,2.6746,2.6748,2.6748,2.6748]}]]